Time,TemperatureF,DewpointF,PressureIn,WindDirection,WindDirectionDegrees,WindSpeedMPH,WindSpeedGustMPH,Humidity,HourlyPrecipIn,Conditions,Clouds,dailyrainin,SoftwareType,DateUTC
2013-01-14 00:10:00,51.0,49.3,30.06,NE,55,0.0,0.0,94,0.00,,,0.00,Wunderground v.1.15,2013-01-14 05:10:00,
2013-01-14 00:20:00,50.6,48.7,30.07,NE,55,0.0,0.0,93,0.00,,,0.00,Wunderground v.1.15,2013-01-14 05:20:00,
2013-01-14 00:30:00,50.1,48.2,30.08,NE,55,0.0,0.0,93,0.00,,,0.00,Wunderground v.1.15,2013-01-14 05:30:00,
2013-01-14 00:40:00,49.3,46.8,30.08,NE,55,0.0,0.0,91,0.00,,,0.00,Wunderground v.1.15,2013-01-14 05:40:00,
2013-01-14 00:50:00,48.3,45.2,30.08,NE,55,0.0,0.0,89,0.00,,,0.00,Wunderground v.1.15,2013-01-14 05:50:00,
2013-01-14 01:00:00,47.5,44.7,30.09,NE,55,0.0,0.0,90,0.00,,,0.00,Wunderground v.1.15,2013-01-14 06:00:00,
2013-01-14 01:10:00,47.0,44.2,30.09,ESE,108,0.0,0.0,90,0.00,,,0.00,Wunderground v.1.15,2013-01-14 06:10:00,
2013-01-14 01:20:00,46.5,43.7,30.09,ESE,104,0.0,0.0,90,0.00,,,0.00,Wunderground v.1.15,2013-01-14 06:20:00,
2013-01-14 01:30:00,46.1,43.6,30.10,ESE,103,0.0,0.0,91,0.10,,,0.02,Wunderground v.1.15,2013-01-14 06:30:00,
2013-01-14 01:40:00,45.7,43.5,30.08,East,92,0.0,0.0,92,0.10,,,0.04,Wunderground v.1.15,2013-01-14 06:40:00,
2013-01-14 01:50:00,45.2,43.0,30.10,East,79,0.0,0.0,92,0.10,,,0.05,Wunderground v.1.15,2013-01-14 06:50:00,
2013-01-14 02:00:00,44.8,42.9,30.09,East,79,0.0,0.0,93,0.06,,,0.07,Wunderground v.1.15,2013-01-14 07:00:00,
2013-01-14 02:10:00,44.7,43.1,30.08,East,79,0.0,0.0,94,0.34,,,0.12,Wunderground v.1.15,2013-01-14 07:10:00,
2013-01-14 02:20:00,44.5,43.2,30.10,East,79,0.0,0.0,95,0.09,,,0.13,Wunderground v.1.15,2013-01-14 07:20:00,
2013-01-14 02:30:00,44.3,43.0,30.11,East,79,0.0,0.0,95,0.08,,,0.14,Wunderground v.1.15,2013-01-14 07:30:00,
2013-01-14 02:40:00,44.3,43.2,30.11,East,79,0.0,0.0,96,0.09,,,0.16,Wunderground v.1.15,2013-01-14 07:40:00,
2013-01-14 02:50:00,44.4,43.3,30.12,East,79,0.0,0.0,96,0.06,,,0.17,Wunderground v.1.15,2013-01-14 07:50:00,
2013-01-14 03:00:00,44.4,43.3,30.12,East,79,0.0,0.0,96,0.12,,,0.19,Wunderground v.1.15,2013-01-14 08:00:00,
2013-01-14 03:10:00,44.3,43.2,30.11,East,79,0.0,0.0,96,0.08,,,0.20,Wunderground v.1.15,2013-01-14 08:10:00,
2013-01-14 03:20:00,44.3,43.2,30.12,East,79,0.0,0.0,96,0.05,,,0.21,Wunderground v.1.15,2013-01-14 08:20:00,
2013-01-14 03:30:00,44.4,43.3,30.12,East,79,0.0,0.0,96,0.04,,,0.21,Wunderground v.1.15,2013-01-14 08:30:00,
2013-01-14 03:40:00,44.4,43.3,30.13,East,79,0.0,0.0,96,0.00,,,0.21,Wunderground v.1.15,2013-01-14 08:40:00,
2013-01-14 03:50:00,44.4,43.3,30.12,East,79,0.0,0.0,96,0.00,,,0.21,Wunderground v.1.15,2013-01-14 08:50:00,
2013-01-14 04:00:00,44.2,43.1,30.12,East,79,0.0,0.0,96,0.00,,,0.21,Wunderground v.1.15,2013-01-14 09:00:00,
2013-01-14 04:10:00,44.2,43.1,30.12,East,79,0.0,0.0,96,0.00,,,0.21,Wunderground v.1.15,2013-01-14 09:10:00,
2013-01-14 04:20:00,44.0,42.7,30.13,East,79,0.0,0.0,95,0.00,,,0.21,Wunderground v.1.15,2013-01-14 09:20:00,
2013-01-14 04:30:00,43.6,42.3,30.12,ENE,66,0.0,0.0,95,0.00,,,0.21,Wunderground v.1.15,2013-01-14 09:30:00,
2013-01-14 04:40:00,43.5,42.2,30.12,ENE,76,0.0,0.0,95,0.00,,,0.21,Wunderground v.1.15,2013-01-14 09:40:00,
2013-01-14 04:50:00,43.4,42.1,30.13,ENE,76,0.0,0.0,95,0.00,,,0.21,Wunderground v.1.15,2013-01-14 09:50:00,
2013-01-14 05:00:00,43.4,42.1,30.13,ENE,76,0.0,0.0,95,0.00,,,0.21,Wunderground v.1.15,2013-01-14 10:00:00,
2013-01-14 05:10:00,43.4,42.1,30.13,ENE,76,0.0,0.0,95,0.00,,,0.21,Wunderground v.1.15,2013-01-14 10:10:00,
2013-01-14 05:20:00,43.3,42.0,30.13,ENE,76,0.0,0.0,95,0.00,,,0.21,Wunderground v.1.15,2013-01-14 10:20:00,
2013-01-14 05:30:00,43.2,42.1,30.13,ENE,76,0.0,0.0,96,0.00,,,0.22,Wunderground v.1.15,2013-01-14 10:30:00,
2013-01-14 05:40:00,43.1,41.8,30.13,ENE,76,0.0,0.0,95,0.00,,,0.22,Wunderground v.1.15,2013-01-14 10:40:00,
2013-01-14 05:50:00,43.0,41.9,30.14,ENE,76,0.0,0.0,96,0.00,,,0.22,Wunderground v.1.15,2013-01-14 10:50:00,
2013-01-14 06:00:00,42.7,41.4,30.13,NE,54,0.0,0.0,95,0.00,,,0.22,Wunderground v.1.15,2013-01-14 11:00:00,
2013-01-14 06:10:00,42.7,41.4,30.14,NNE,32,0.0,0.0,95,0.00,,,0.22,Wunderground v.1.15,2013-01-14 11:10:00,
2013-01-14 06:20:00,42.7,41.4,30.15,NNE,32,0.0,0.0,95,0.00,,,0.22,Wunderground v.1.15,2013-01-14 11:20:00,
2013-01-14 06:30:00,42.9,41.8,30.15,NNE,32,0.0,0.0,96,0.00,,,0.22,Wunderground v.1.15,2013-01-14 11:30:00,
2013-01-14 06:40:00,42.9,41.8,30.16,NNE,32,0.0,0.0,96,0.00,,,0.22,Wunderground v.1.15,2013-01-14 11:40:00,
2013-01-14 06:50:00,42.7,41.4,30.15,NE,55,0.0,0.0,95,0.00,,,0.22,Wunderground v.1.15,2013-01-14 11:50:00,
2013-01-14 07:00:00,42.7,41.4,30.16,NNE,33,0.0,0.0,95,0.00,,,0.22,Wunderground v.1.15,2013-01-14 12:00:00,
2013-01-14 07:10:00,42.6,41.0,30.16,NE,37,0.0,0.0,94,0.00,,,0.22,Wunderground v.1.15,2013-01-14 12:10:00,
2013-01-14 07:20:00,42.4,40.8,30.16,NE,37,0.0,0.0,94,0.00,,,0.22,Wunderground v.1.15,2013-01-14 12:20:00,
2013-01-14 07:30:00,42.5,41.2,30.16,NE,37,0.0,0.0,95,0.00,,,0.22,Wunderground v.1.15,2013-01-14 12:30:00,
2013-01-14 07:40:00,42.5,41.2,30.18,NE,37,0.0,0.0,95,0.00,,,0.22,Wunderground v.1.15,2013-01-14 12:40:00,
2013-01-14 07:50:00,42.6,41.5,30.19,NE,37,0.0,0.0,96,0.00,,,0.23,Wunderground v.1.15,2013-01-14 12:50:00,
2013-01-14 08:00:00,42.7,41.6,30.18,NE,37,0.0,0.0,96,0.16,,,0.25,Wunderground v.1.15,2013-01-14 13:00:00,
2013-01-14 08:10:00,42.6,41.5,30.19,NE,37,0.0,0.0,96,0.07,,,0.26,Wunderground v.1.15,2013-01-14 13:10:00,
2013-01-14 08:20:00,42.4,41.3,30.19,NE,56,0.0,0.0,96,0.00,,,0.27,Wunderground v.1.15,2013-01-14 13:20:00,
2013-01-14 08:30:00,42.3,41.2,30.19,NE,56,0.0,0.0,96,0.00,,,0.27,Wunderground v.1.15,2013-01-14 13:30:00,
2013-01-14 08:40:00,42.3,41.0,30.21,North,355,0.0,0.0,95,0.00,,,0.27,Wunderground v.1.15,2013-01-14 13:40:00,
2013-01-14 08:50:00,42.3,41.2,30.21,North,355,0.0,0.0,96,0.00,,,0.28,Wunderground v.1.15,2013-01-14 13:50:00,
2013-01-14 09:00:00,42.4,41.3,30.22,North,355,0.0,0.0,96,0.17,,,0.31,Wunderground v.1.15,2013-01-14 14:00:00,
2013-01-14 09:10:00,42.4,41.3,30.22,North,5,0.0,0.0,96,0.05,,,0.31,Wunderground v.1.15,2013-01-14 14:10:00,
2013-01-14 09:20:00,42.4,41.3,30.21,North,5,0.0,0.0,96,0.04,,,0.32,Wunderground v.1.15,2013-01-14 14:20:00,
2013-01-14 09:30:00,42.5,41.4,30.22,North,5,0.0,0.0,96,0.00,,,0.32,Wunderground v.1.15,2013-01-14 14:30:00,
2013-01-14 09:40:00,42.4,41.3,30.22,North,5,0.0,1.0,96,0.00,,,0.32,Wunderground v.1.15,2013-01-14 14:40:00,
2013-01-14 09:50:00,42.4,41.3,30.21,NNE,19,0.0,0.0,96,0.00,,,0.32,Wunderground v.1.15,2013-01-14 14:50:00,
2013-01-14 10:00:00,42.4,42.4,30.20,NE,37,0.0,2.0,100,0.00,,,0.32,Wunderground v.1.15,2013-01-14 15:00:00,
2013-01-14 10:10:00,42.3,41.0,30.22,ENE,57,1.0,1.0,95,0.00,,,0.33,Wunderground v.1.15,2013-01-14 15:10:00,
2013-01-14 10:20:00,42.5,41.2,30.21,NE,54,1.0,1.0,95,0.00,,,0.33,Wunderground v.1.15,2013-01-14 15:20:00,
2013-01-14 10:30:00,42.5,41.2,30.21,NE,46,0.0,0.0,95,0.00,,,0.33,Wunderground v.1.15,2013-01-14 15:30:00,
2013-01-14 10:40:00,42.6,41.3,30.21,ENE,67,1.0,1.0,95,0.00,,,0.33,Wunderground v.1.15,2013-01-14 15:40:00,
2013-01-14 10:50:00,42.7,41.4,30.21,NE,34,0.0,2.0,95,0.00,,,0.33,Wunderground v.1.15,2013-01-14 15:50:00,
2013-01-14 11:00:00,42.8,41.5,30.20,NNE,23,0.0,0.0,95,0.00,,,0.33,Wunderground v.1.15,2013-01-14 16:00:00,
2013-01-14 11:10:00,42.9,41.6,30.21,NE,39,0.0,0.0,95,0.00,,,0.33,Wunderground v.1.15,2013-01-14 16:10:00,
2013-01-14 11:20:00,42.9,41.6,30.22,NE,39,0.0,0.0,95,0.00,,,0.33,Wunderground v.1.15,2013-01-14 16:20:00,
2013-01-14 11:30:00,43.0,41.7,30.21,ENE,58,0.0,1.0,95,0.00,,,0.33,Wunderground v.1.15,2013-01-14 16:30:00,
2013-01-14 11:40:00,43.1,41.8,30.20,ENE,63,1.0,1.0,95,0.00,,,0.34,Wunderground v.1.15,2013-01-14 16:40:00,
2013-01-14 11:50:00,43.0,41.7,30.18,NE,40,1.0,1.0,95,0.00,,,0.34,Wunderground v.1.15,2013-01-14 16:50:00,
2013-01-14 12:00:00,42.9,41.6,30.17,East,79,0.0,2.0,95,0.04,,,0.35,Wunderground v.1.15,2013-01-14 17:00:00,
2013-01-14 12:10:00,43.1,42.0,30.17,NE,38,0.0,2.0,96,0.00,,,0.36,Wunderground v.1.15,2013-01-14 17:10:00,
2013-01-14 12:20:00,43.1,42.0,30.17,ENE,62,1.0,1.0,96,0.00,,,0.36,Wunderground v.1.15,2013-01-14 17:20:00,
2013-01-14 12:30:00,43.3,42.2,30.16,NE,55,0.0,0.0,96,0.00,,,0.36,Wunderground v.1.15,2013-01-14 17:30:00,
2013-01-14 12:40:00,43.3,42.2,30.16,NE,55,0.0,0.0,96,0.00,,,0.37,Wunderground v.1.15,2013-01-14 17:40:00,
2013-01-14 12:50:00,43.4,42.3,30.15,NE,55,0.0,0.0,96,0.07,,,0.38,Wunderground v.1.15,2013-01-14 17:50:00,
2013-01-14 13:00:00,43.4,42.3,30.14,NE,38,0.0,1.0,96,0.06,,,0.39,Wunderground v.1.15,2013-01-14 18:00:00,
2013-01-14 13:10:00,43.6,42.5,30.13,NE,38,0.0,1.0,96,0.06,,,0.40,Wunderground v.1.15,2013-01-14 18:10:00,
2013-01-14 13:20:00,43.7,42.6,30.14,ENE,69,0.0,0.0,96,0.04,,,0.41,Wunderground v.1.15,2013-01-14 18:20:00,
2013-01-14 13:30:00,43.7,42.6,30.13,ENE,69,0.0,0.0,96,0.07,,,0.42,Wunderground v.1.15,2013-01-14 18:30:00,
2013-01-14 13:40:00,43.9,43.1,30.13,NE,40,1.0,2.0,97,0.08,,,0.43,Wunderground v.1.15,2013-01-14 18:40:00,
2013-01-14 13:50:00,43.8,42.7,30.13,NNE,30,1.0,1.0,96,0.04,,,0.43,Wunderground v.1.15,2013-01-14 18:50:00,
2013-01-14 14:00:00,43.9,42.8,30.13,NNE,30,1.0,1.0,96,0.00,,,0.44,Wunderground v.1.15,2013-01-14 19:00:00,
2013-01-14 14:10:00,43.9,43.1,30.13,NE,40,1.0,2.0,97,0.05,,,0.44,Wunderground v.1.15,2013-01-14 19:10:00,
2013-01-14 14:20:00,43.8,42.7,30.12,ENE,59,1.0,1.0,96,0.05,,,0.45,Wunderground v.1.15,2013-01-14 19:20:00,
2013-01-14 14:30:00,43.8,42.7,30.13,NE,35,1.0,1.0,96,0.04,,,0.46,Wunderground v.1.15,2013-01-14 19:30:00,
2013-01-14 14:40:00,43.7,42.6,30.13,NE,34,1.0,1.0,96,0.06,,,0.47,Wunderground v.1.15,2013-01-14 19:40:00,
2013-01-14 14:50:00,43.7,42.6,30.14,NE,34,0.0,0.0,96,0.06,,,0.48,Wunderground v.1.15,2013-01-14 19:50:00,
2013-01-14 15:00:00,43.8,43.0,30.16,NE,34,0.0,0.0,97,0.15,,,0.50,Wunderground v.1.15,2013-01-14 20:00:00,
2013-01-14 15:10:00,43.9,43.1,30.16,NE,34,0.0,0.0,97,0.13,,,0.52,Wunderground v.1.15,2013-01-14 20:10:00,
2013-01-14 15:20:00,43.9,43.1,30.16,NE,34,0.0,0.0,97,0.12,,,0.55,Wunderground v.1.15,2013-01-14 20:20:00,
2013-01-14 15:30:00,44.0,43.2,30.17,NE,34,0.0,0.0,97,0.08,,,0.56,Wunderground v.1.15,2013-01-14 20:30:00,
2013-01-14 15:40:00,44.2,43.4,30.18,SSW,201,0.0,2.0,97,0.12,,,0.58,Wunderground v.1.15,2013-01-14 20:40:00,
2013-01-14 15:50:00,44.0,43.2,30.18,ENE,76,1.0,1.0,97,0.11,,,0.59,Wunderground v.1.15,2013-01-14 20:50:00,
2013-01-14 16:00:00,43.3,42.0,30.16,NE,55,1.0,1.0,95,0.12,,,0.61,Wunderground v.1.15,2013-01-14 21:00:00,
2013-01-14 16:10:00,42.8,41.2,30.17,NE,54,0.0,2.0,94,0.13,,,0.63,Wunderground v.1.15,2013-01-14 21:10:00,
2013-01-14 16:20:00,42.3,40.7,30.18,ENE,60,0.0,0.0,94,0.56,,,0.68,Wunderground v.1.15,2013-01-14 21:20:00,
2013-01-14 16:30:00,42.0,40.7,30.20,ENE,59,0.0,0.0,95,0.32,,,0.72,Wunderground v.1.15,2013-01-14 21:30:00,
2013-01-14 16:40:00,41.8,40.5,30.21,NE,42,0.0,0.0,95,0.18,,,0.76,Wunderground v.1.15,2013-01-14 21:40:00,
2013-01-14 16:50:00,41.4,39.8,30.22,ENE,67,0.0,2.0,94,0.19,,,0.79,Wunderground v.1.15,2013-01-14 21:50:00,
2013-01-14 17:00:00,40.8,39.2,30.23,NW,325,0.0,0.0,94,0.22,,,0.82,Wunderground v.1.15,2013-01-14 22:00:00,
2013-01-14 17:10:00,40.1,38.5,30.23,East,87,0.0,0.0,94,0.16,,,0.85,Wunderground v.1.15,2013-01-14 22:10:00,
2013-01-14 17:20:00,39.8,38.2,30.23,East,87,0.0,0.0,94,0.14,,,0.88,Wunderground v.1.15,2013-01-14 22:20:00,
2013-01-14 17:30:00,39.5,37.9,30.23,NNW,338,0.0,0.0,94,0.15,,,0.91,Wunderground v.1.15,2013-01-14 22:30:00,
2013-01-14 17:40:00,39.1,37.5,30.23,WSW,257,0.0,0.0,94,0.12,,,0.93,Wunderground v.1.15,2013-01-14 22:40:00,
2013-01-14 17:50:00,38.9,37.6,30.26,WSW,257,0.0,0.0,95,0.27,,,0.96,Wunderground v.1.15,2013-01-14 22:50:00,
2013-01-14 18:00:00,38.8,37.5,30.26,West,259,0.0,0.0,95,0.20,,,1.01,Wunderground v.1.15,2013-01-14 23:00:00,
2013-01-14 18:10:00,38.6,37.3,30.26,ESE,112,0.0,0.0,95,0.17,,,1.04,Wunderground v.1.15,2013-01-14 23:10:00,
2013-01-14 18:20:00,38.5,37.2,30.27,South,181,0.0,0.0,95,0.16,,,1.06,Wunderground v.1.15,2013-01-14 23:20:00,
2013-01-14 18:30:00,38.3,37.0,30.28,South,181,0.0,0.0,95,0.09,,,1.07,Wunderground v.1.15,2013-01-14 23:30:00,
2013-01-14 18:40:00,38.1,36.8,30.27,NE,39,0.0,1.0,95,0.08,,,1.09,Wunderground v.1.15,2013-01-14 23:40:00,
2013-01-14 18:50:00,37.9,36.6,30.27,NE,51,0.0,0.0,95,0.12,,,1.11,Wunderground v.1.15,2013-01-14 23:50:00,
2013-01-14 19:00:00,37.8,36.5,30.27,ENE,63,0.0,0.0,95,0.17,,,1.14,Wunderground v.1.15,2013-01-15 00:00:00,
2013-01-14 19:10:00,37.7,36.4,30.26,ENE,63,0.0,0.0,95,0.18,,,1.17,Wunderground v.1.15,2013-01-15 00:10:00,
2013-01-14 19:20:00,37.7,36.7,30.26,ENE,63,0.0,1.0,96,0.17,,,1.20,Wunderground v.1.15,2013-01-15 00:20:00,
2013-01-14 19:30:00,37.6,36.6,30.26,ENE,63,0.0,0.0,96,0.15,,,1.22,Wunderground v.1.15,2013-01-15 00:30:00,
2013-01-14 19:40:00,37.4,36.4,30.26,NE,47,1.0,1.0,96,0.08,,,1.24,Wunderground v.1.15,2013-01-15 00:40:00,
2013-01-14 19:50:00,37.3,36.3,30.27,NE,47,0.0,0.0,96,0.20,,,1.27,Wunderground v.1.15,2013-01-15 00:50:00,
2013-01-14 20:00:00,37.3,36.3,30.28,NE,47,0.0,0.0,96,0.22,,,1.30,Wunderground v.1.15,2013-01-15 01:00:00,
2013-01-14 20:10:00,37.3,36.3,30.28,NE,47,0.0,0.0,96,0.18,,,1.33,Wunderground v.1.15,2013-01-15 01:10:00,
2013-01-14 20:20:00,37.3,36.3,30.27,SSE,150,1.0,1.0,96,0.10,,,1.35,Wunderground v.1.15,2013-01-15 01:20:00,
2013-01-14 20:30:00,37.3,36.3,30.26,ENE,67,0.0,0.0,96,0.08,,,1.36,Wunderground v.1.15,2013-01-15 01:30:00,
2013-01-14 20:40:00,37.4,36.4,30.25,ENE,67,0.0,0.0,96,0.09,,,1.38,Wunderground v.1.15,2013-01-15 01:40:00,
2013-01-14 20:50:00,37.5,36.5,30.25,ENE,67,0.0,0.0,96,0.09,,,1.39,Wunderground v.1.15,2013-01-15 01:50:00,
2013-01-14 21:00:00,37.6,36.6,30.24,NE,55,0.0,0.0,96,0.06,,,1.40,Wunderground v.1.15,2013-01-15 02:00:00,
2013-01-14 21:10:00,37.7,36.9,30.25,NE,43,0.0,1.0,97,0.07,,,1.41,Wunderground v.1.15,2013-01-15 02:10:00,
2013-01-14 21:20:00,37.8,37.0,30.25,NE,48,0.0,0.0,97,0.06,,,1.42,Wunderground v.1.15,2013-01-15 02:20:00,
2013-01-14 21:30:00,37.9,37.1,30.25,NE,48,0.0,0.0,97,0.00,,,1.42,Wunderground v.1.15,2013-01-15 02:30:00,
2013-01-14 21:40:00,38.0,37.2,30.25,NE,49,0.0,0.0,97,0.00,,,1.43,Wunderground v.1.15,2013-01-15 02:40:00,
2013-01-14 21:50:00,38.1,37.3,30.23,NE,46,0.0,1.0,97,0.04,,,1.44,Wunderground v.1.15,2013-01-15 02:50:00,
2013-01-14 22:00:00,38.2,37.4,30.23,NE,43,1.0,1.0,97,0.04,,,1.44,Wunderground v.1.15,2013-01-15 03:00:00,
2013-01-14 22:10:00,38.2,37.4,30.22,NE,43,0.0,0.0,97,0.00,,,1.45,Wunderground v.1.15,2013-01-15 03:10:00,
2013-01-14 22:20:00,38.1,37.3,30.22,NNE,33,1.0,1.0,97,0.00,,,1.45,Wunderground v.1.15,2013-01-15 03:20:00,
2013-01-14 22:30:00,38.1,37.3,30.22,NNE,24,1.0,1.0,97,0.00,,,1.45,Wunderground v.1.15,2013-01-15 03:30:00,
2013-01-14 22:40:00,38.2,37.4,30.22,ENE,71,0.0,0.0,97,0.00,,,1.45,Wunderground v.1.15,2013-01-15 03:40:00,
2013-01-14 22:50:00,38.4,37.6,30.22,NE,40,0.0,1.0,97,0.00,,,1.45,Wunderground v.1.15,2013-01-15 03:50:00,
2013-01-14 23:00:00,38.5,37.7,30.20,NE,44,1.0,1.0,97,0.09,,,1.47,Wunderground v.1.15,2013-01-15 04:00:00,
2013-01-14 23:10:00,38.6,37.8,30.20,NE,44,1.0,1.0,97,0.06,,,1.47,Wunderground v.1.15,2013-01-15 04:10:00,
2013-01-14 23:20:00,38.7,37.9,30.19,NNE,29,1.0,1.0,97,0.00,,,1.47,Wunderground v.1.15,2013-01-15 04:20:00,
2013-01-14 23:30:00,38.9,38.1,30.19,NE,52,1.0,1.0,97,0.00,,,1.48,Wunderground v.1.15,2013-01-15 04:30:00,
2013-01-14 23:40:00,39.0,38.2,30.19,NE,49,1.0,1.0,97,0.00,,,1.48,Wunderground v.1.15,2013-01-15 04:40:00,
2013-01-14 23:50:00,39.0,38.2,30.18,NE,46,1.0,1.0,97,0.00,,,1.48,Wunderground v.1.15,2013-01-15 04:50:00,